User: anonymous   Login
Location: Buisson
(44.2787°N, 4.9969°E)
Time: 13:59:06
(UTC+00:00)
Language:

Cosmos 1733 - Orbit

View from above orbital plane
View from above orbital plane
View from above satellite
View from above satellite

Ground track
Ground track

The orbit data is extracted from the following two-line orbital elements,

1 16611U 86018A   21170.87447965  .00000753  00000-0  35558-4 0  9994
2 16611  82.4890  28.2538 0010860 305.7220  54.3002 15.17867324930639
Epoch (UTC): 19 June 2021 20:59:15
Eccentricity: 0.0010860
inclination: 82.4890°
perigee height: 505 km
apogee height: 520 km
right ascension of ascending node: 28.2538°
argument of perigee: 305.7220°
revolutions per day: 15.17867324
mean anomaly at epoch: 54.3002°
orbit number at epoch: 93063

The dashed part of the orbit path shows where the satellite is in the earth's shadow,  

DLR